CW2026 Weather Reports


time (UTC)temp
F
wind
direction
speed
knots
gust
knots
rain 1hr
in
rain 24hr
in
rain mn
in
humidity
%
barometer
mb
20260504211528 56 249 1.7 8.7 0.00 0.03 0.03 68 1004.9
20260504210026 55 286 1.7 11.3 0.00 0.03 0.03 70 1004.9
20260504204537 55 262 1.7 10.4 0.00 0.03 0.03 70 1004.8
20260504203029 55 292 0.9 7.0 0.00 0.03 0.03 71 1004.6
20260504201518 54 306 0.0 6.1 0.00 0.03 0.03 75 1004.8
20260504200024 54 313 0.9 7.0 0.00 0.03 0.03 76 1004.8
20260504194527 55 279 1.7 10.4 0.00 0.04 0.03 74 1004.7
20260504193003 54 284 4.3 10.4 0.00 0.04 0.03 76 1004.8
20260504191505 53 290 1.7 9.6 0.00 0.05 0.03 81 1004.7
20260504190011 51 287 1.7 7.8 0.01 0.05 0.03 85 1004.9
20260504184522 51 248 0.9 7.0 0.03 0.06 0.03 89 1005.1
20260504183010 50 277 0.0 6.1 0.03 0.07 0.03 88 1005.0
20260504181511 49 304 0.9 6.1 0.03 0.08 0.03 89 1005.3
20260504180010 50 298 4.3 13.0 0.02 0.09 0.02 83 1005.4
20260504174512 54 287 7.8 20.0 0.00 0.08 0.00 69 1005.2
20260504173008 55 300 6.1 13.9 0.00 0.11 0.00 60 1004.2
20260504171512 58 266 3.5 13.0 0.00 0.12 0.00 48 1004.0
20260504081525 37 248 0.9 8.7 0.00 0.55 0.00 88 1004.3
20260504044536 42 300 3.5 10.4 0.00 0.61 0.00 92 1002.9
20260504043039 42 324 4.3 13.9 0.00 0.61 0.00 91 1002.8
20260504041530 42 327 6.1 12.2 0.00 0.61 0.00 92 1002.5
20260504040013 42 299 1.7 9.6 0.00 0.61 0.00 93 1002.5
20260504034504 42 325 4.3 12.2 0.00 0.61 0.61 93 1002.3
20260504033012 42 321 3.5 9.6 0.00 0.61 0.61 93 1002.1
20260504031519 42 309 4.3 10.4 0.00 0.61 0.61 94 1002.0
20260504030020 42 319 4.3 9.6 0.00 0.61 0.61 94 1001.8
20260504024503 42 321 3.5 10.4 0.00 0.61 0.61 94 1001.7
20260504023008 42 300 2.6 8.7 0.00 0.61 0.61 94 1001.7
20260504021515 42 331 4.3 11.3 0.00 0.61 0.61 94 1001.6
20260504020019 42 288 5.2 12.2 0.00 0.61 0.61 93 1001.7
20260504014533 42 331 6.1 11.3 0.00 0.61 0.61 93 1001.6
20260504013008 42 319 7.0 13.0 0.00 0.61 0.61 94 1001.5
20260504011510 42 339 7.0 13.0 0.00 0.61 0.61 94 1001.6
20260504010015 42 317 4.3 16.5 0.00 0.61 0.61 94 1001.2
20260504004520 42 335 4.3 13.0 0.00 0.61 0.61 94 1001.1
20260504003021 42 313 6.1 11.3 0.00 0.61 0.61 94 1000.8
20260504001525 42 319 5.2 13.9 0.00 0.61 0.61 95 1000.7
20260504000029 42 323 7.0 12.2 0.00 0.61 0.61 95 1000.4
20260503234529 42 331 3.5 13.0 0.00 0.61 0.61 95 1000.3
20260503233021 41 311 3.5 11.3 0.00 0.61 0.61 95 1000.3
20260503231524 41 349 4.3 12.2 0.00 0.61 0.61 94 1000.2
20260503230028 41 9 5.2 13.0 0.00 0.61 0.61 95 1000.1
20260503224529 41 346 4.3 16.5 0.00 0.61 0.61 94 1000.1
20260503223028 41 352 8.7 14.8 0.00 0.61 0.61 94 1000.0
20260503221525 41 360 7.0 16.5 0.00 0.61 0.61 94 1000.0
20260503220024 41 342 9.6 16.5 0.00 0.61 0.61 94 1000.0
20260503214539 41 5 9.6 16.5 0.00 0.61 0.61 94 999.9
20260503213017 42 327 7.0 13.9 0.00 0.61 0.61 94 1000.0